Simultaneous Nadir Overpasses (SNOs) Predictions

Prediction of SNOs over PacNW region [( 10.00, 139.50) to ( 22.70, 165.60)] between AQUA and NPP Satellites:

Table of predicted SNOs over PacNW region for the next 30.0 days since TLE Epoch: 12/27/2014
Index Date (AQUA) Time (AQUA) AQUA Lat,Lon Date (NPP) Time (NPP) NPP Lat,Lon Distance(km) Time Diff (sec)
1 12/29/2014 03:28:43 10.10, 150.31 12/29/2014 03:31:20 9.77, 148.78 172.45 157
2 12/31/2014 15:32:20 10.05, 152.34 12/31/2014 15:28:51 9.68, 152.37 40.80 209
3 01/06/2015 02:39:08 10.11, 162.72 01/06/2015 02:40:22 9.85, 161.46 140.61 74
4 01/08/2015 16:20:29 14.03, 140.91 01/08/2015 16:18:06 14.08, 140.71 22.55 143
5 01/14/2015 03:28:16 10.11, 150.45 01/14/2015 03:30:49 9.73, 148.82 182.55 153
6 01/16/2015 15:31:47 10.05, 152.50 01/16/2015 15:28:18 9.79, 152.43 29.87 209
7 01/22/2015 02:38:22 10.09, 162.94 01/22/2015 02:39:49 9.78, 161.53 158.38 87




NCC Satellite Simultaneous Nadir Overpasses (SNOs) Prediction Service
